This demonstration page uses our WeatherBlox Daily Observations layout. Learn more.

Left ArrowRight Arrow

41.55636, -103.73856

Hourly Observations for October 28, 2018

Temp ( °F °C ) Dew Point ( °F °C ) Humidity (%) Winds ( mph kmh ) Pressure ( in mb ) Visibility ( mi km ) Precip ( " mm )
12:58 am 00:58 Clear 37 2.9 33 0.3 83 83 WNW 10 17 30.11 1020 10 16 N/A
1:58 am 01:58 Clear 36 2.4 32 0.1 85 85 W 9 15 30.14 1021 10 16 N/A
2:58 am 02:58 Clear 35 1.6 31 -0.4 87 87 W 8 13 30.15 1021 10 16 N/A
3:58 am 03:58 Clear 33 0.8 30 -0.9 89 89 W 6 9 30.16 1021 10 16 N/A
4:58 am 04:58 Clear 34 0.9 31 -0.7 89 89 W 7 11 30.19 1022 10 16 N/A
5:58 am 05:58 Clear 36 2.1 32 0.1 87 87 SW 3 6 30.20 1023 10 16 N/A
6:58 am 06:58 Clear 35 1.5 32 undefined 90 90 SSW 8 13 30.24 1024 10 16 N/A
7:58 am 07:58 Sunny 34 1.2 32 -0.2 91 91 SSW 8 13 30.26 1025 10 16 N/A
8:58 am 08:58 Sunny 42 5.5 35 1.4 75 75 SW 8 13 30.24 1024 10 16 N/A
9:58 am 09:58 Sunny 53 11.5 30 -1.2 42 42 WSW 17 28 30.20 1023 10 16 N/A
10:58 am 10:58 Sunny 59 14.8 30 -1 34 34 WSW 17 28 30.16 1021 10 16 N/A
11:58 am 11:58 Sunny 63 17.1 31 -0.8 30 30 SW 12 19 30.11 1020 10 16 N/A
12:58 pm 12:58 Sunny 64 18 31 -0.3 29 29 WSW 8 13 30.07 1018 10 16 N/A
1:58 pm 13:58 Sunny 68 20 32 undefined 26 26 SSW 10 17 30.02 1017 10 16 N/A
2:58 pm 14:58 Sunny 70 21.1 31 -0.4 24 24 SSW 7 11 30.00 1016 10 16 N/A
3:58 pm 15:58 Sunny 71 21.8 31 -0.8 22 22 SW 10 17 29.99 1016 10 16 N/A
4:58 pm 16:58 Sunny 64 17.8 31 -0.5 29 29 ESE 6 9 30.01 1016 10 16 N/A
5:58 pm 17:58 Mostly Clear 63 17.1 32 0.2 32 32 SSW 5 7 29.99 1016 10 16 N/A
6:58 pm 18:58 Clear 55 12.8 32 undefined 42 42 WSW 10 17 30.04 1017 10 16 N/A
7:58 pm 19:58 Clear 55 12.5 32 -0.1 42 42 SSW 5 7 30.04 1017 10 16 N/A
8:58 pm 20:58 Clear 50 10.2 32 0.1 50 50 SW 7 11 30.01 1016 10 16 N/A
9:58 pm 21:58 Clear 49 9.6 33 0.4 53 53 SW 6 9 29.96 1015 10 16 N/A
10:58 pm 22:58 Clear 52 11 33 0.5 49 49 WSW 7 11 29.94 1014 10 16 N/A
11:58 pm 23:58 Clear 45 7.3 33 0.4 62 62 WSW 8 13 29.94 1014 10 16 N/A

Powered by AerisWeather